Tracking 19827 objects as of 21-Aug-2019
HD Live streaming from Space Station
objects crossing your sky now

FENGYUN 1C DEB

Track FENGYUN 1C DEB now!
10-day predictions


NORAD ID: 30342
Int'l Code: 1999-025ABD
Perigee: 855.3 km
Apogee: 1,110.9 km
Inclination: 100.2 °
Period: 104.6 minutes
Semi major axis: 7354 km
RCS: 0.0538 m2 (small)
Launch date: May 10, 1999
Source: People's Republic of China (PRC)
Launch site: Taiyaun Space Center, China (TSC)

Note: This is SATELLITE DEBRIS
aabbcc
Your satellite tracking list
Your tracking list is empty




NASA's NSSDC Master Catalog

Two Line Element Set (TLE):
1 30342U 99025ABD 19232.97164749  .00000071  00000-0  11264-3 0  9996
2 30342 100.1952 220.7638 0173760 270.9294 150.3821 13.76610299631528
Source of the keplerian elements: AFSPC